Location: Fort Worth, Tx
(32.7431°N, 97.3695°W)
Time: 01:05:08
(UTC-04:00)

A-11 Canister half - Pass Details

Date: 01 March 2024
Orbit: 1525 x 1683 km, 47.3° (Epoch: 24 April)

Event Time Altitude Azimuth Distance (km) Brightness Sun altitude
Rises 23:31:05 0° 288° (WNW) 4,754 12.2 -50.3°
Reaches altitude 10° 23:34:41 10° 298° (WNW) 3,749 11.5 -50.9°
Enters shadow 23:40:08 28° 330° (NNW) 2,581 10.4 -51.9°
